Ivano-Frankivs'k, Ukraine

7:40 AM EEST on April 23, 2018 (GMT +0300)
Ivano-Frankivs'k

Weather History for UKLI - October, 2012

Change the Weather History Date:

Tuesday, October 9, 2012

  Actual Average Record
Temperature  
Mean Temperature 46 °F -  
Max Temperature 59 °F - - ()
Min Temperature 34 °F - - ()
Degree Days  
Heating Degree Days 18    
Moisture  
Dew Point 38 °F    
Average Humidity 67    
Maximum Humidity 100    
Minimum Humidity 35    
Precipitation  
Precipitation 0.00 in - - ()
Sea Level Pressure  
Sea Level Pressure 29.86 in    
Wind  
Wind Speed 6 mph ()    
Max Wind Speed 13 mph    
Max Gust Speed -    
Visibility 6.0 miles    
Events      
T = Trace of Precipitation, MM = Missing Value Source: Averaged Metar Reports

Daily Weather History Graph

Daily Weather History Graph

Search for Another Location

Airport or City:

Astronomy

Oct. 09, 2012 Rise Set
Actual Time 7:32 AM EEST 6:43 PM EEST
Civil Twilight 7:01 AM EEST 7:14 PM EEST
Nautical Twilight 6:24 AM EEST 7:51 PM EEST
Astronomical Twilight 5:47 AM EEST 8:27 PM EEST
Moon 12:19 AM EEST (10/9) 3:26 PM EEST (10/9)
Length of Visible Light 12h 13m
Length of Day
11h 10m
Last Quarter, 40% of the Moon is Illuminated
Oct 9
Last Quarter
Oct 15
New
Oct 22
First Quarter
Oct 29
Full
Nov 7
Last Quarter

Hourly Weather History & Observations

Time (EEST) Temp. Windchill Dew Point Humidity Pressure Visibility Wind Dir Wind Speed Gust Speed Precip Events Conditions
3:00 AM 39 °F - 36 °F 85% 30.02 in 6 mi West 6.7 mph - -   Partly Cloudy
5:00 AM 35.6 °F 31.8 °F 33.8 °F 93% 29.98 in - WSW 4.5 mph - N/A   Clear
5:30 AM 35.6 °F 30.0 °F 33.8 °F 93% 29.98 in - SW 6.7 mph - N/A   Clear
6:00 AM 35 °F - 33 °F 90% 30.02 in 6 mi SW 6.7 mph - -   Scattered Clouds
6:00 AM 33.8 °F 27.9 °F 33.8 °F 100% 29.98 in - WSW 6.7 mph - N/A   Clear
6:30 AM 33.8 °F 29.7 °F 33.8 °F 100% 29.95 in - WSW 4.5 mph - N/A   Clear
7:30 AM 35.6 °F 30.0 °F 33.8 °F 93% 29.95 in - WSW 6.7 mph - N/A   Clear
8:00 AM 37.4 °F 32.2 °F 33.8 °F 87% 29.95 in - WSW 6.7 mph - N/A   Clear
8:30 AM 37.4 °F 33.9 °F 33.8 °F 87% 29.92 in - WSW 4.5 mph - N/A   Clear
9:00 AM 40 °F - 35 °F 76% 29.98 in 6 mi WSW 6.7 mph - -   Scattered Clouds
9:00 AM 39.2 °F 34.4 °F 35.6 °F 87% 29.92 in - SW 6.7 mph - N/A   Clear
9:30 AM 39.2 °F 36.0 °F 35.6 °F 87% 29.92 in - SSW 4.5 mph - N/A   Clear
10:00 AM 44.6 °F - 35.6 °F 71% 29.92 in - SW 2.2 mph - N/A   Clear
10:30 AM 44.6 °F 40.8 °F 35.6 °F 71% 29.92 in - SW 6.7 mph - N/A   Clear
11:00 AM 51.8 °F - 30.2 °F 44% 29.89 in - SW 4.5 mph - N/A   Clear
11:30 AM 51.8 °F - 30.2 °F 44% 29.89 in - SSE 6.7 mph - N/A   Clear
12:00 PM 54 °F - 34 °F 35% 29.90 in 6 mi ESE 4.5 mph - -  
12:00 PM 53.6 °F - 33.8 °F 47% 29.89 in - SSE 4.5 mph - N/A   Clear
12:30 PM 53.6 °F - 33.8 °F 47% 29.86 in - SSW 6.7 mph - N/A   Clear
1:00 PM 55.4 °F - 37.4 °F 51% 29.86 in - SSW 6.7 mph - N/A   Clear
1:30 PM 55.4 °F - 37.4 °F 51% 29.83 in - Variable 4.5 mph - N/A   Clear
2:00 PM 57.2 °F - 41.0 °F 55% 29.83 in - Calm Calm - N/A   Clear
2:30 PM 57.2 °F - 41.0 °F 55% 29.83 in - SSW 6.7 mph - N/A   Clear
3:00 PM 58 °F - 43 °F 46% 29.81 in 31 mi WSW 4.5 mph - -   Scattered Clouds
3:00 PM 59.0 °F - 42.8 °F 55% 29.80 in - WSW 4.5 mph - N/A   Clear
3:30 PM 59.0 °F - 42.8 °F 55% 29.80 in - West 6.7 mph - N/A   Clear
4:00 PM 59.0 °F - 46.4 °F 63% 29.80 in - West 13.4 mph - N/A   Clear
4:30 PM 59.0 °F - 46.4 °F 63% 29.80 in - West 13.4 mph - N/A   Clear
5:00 PM 57.2 °F - 44.6 °F 63% 29.77 in - WSW 13.4 mph - N/A   Clear
5:30 PM 57.2 °F - 44.6 °F 63% 29.77 in - West 11.2 mph - N/A   Clear
6:00 PM 54 °F - 43 °F 57% 29.80 in 6 mi WSW 11.2 mph - -   Partly Cloudy
6:00 PM 55.4 °F - 42.8 °F 63% 29.80 in - WSW 8.9 mph - N/A   Clear
6:30 PM 55.4 °F - 42.8 °F 63% 29.80 in - WSW 4.5 mph - N/A   Clear
7:00 PM 51.8 °F - 39.2 °F 62% 29.77 in - SW 6.7 mph - N/A   Clear
7:30 PM 51.8 °F - 39.2 °F 62% 29.77 in - SW 4.5 mph - N/A   Clear
8:00 PM 48.2 °F - 37.4 °F 66% 29.77 in - SW 4.5 mph - N/A   Clear
8:30 PM 48.2 °F - 37.4 °F 66% 29.77 in - WSW 6.7 mph - N/A   Clear
9:00 PM 49 °F - 36 °F 50% 29.80 in 6 mi SW 4.5 mph - -   Scattered Clouds
9:00 PM 48.2 °F - 35.6 °F 62% 29.77 in - SW 4.5 mph - N/A   Clear
9:30 PM 48.2 °F - 35.6 °F 62% 29.77 in - WSW 4.5 mph - N/A   Clear
10:00 PM 48.2 °F - 37.4 °F 66% 29.77 in - WSW 6.7 mph - N/A   Clear